Vorticity
6 4 2 4 12 12 10 7 4 5 5 6 6 6 6 6 6 6 6 6 6 6 7 6 6 7 7 5 4 8 4 8 7 8 11 9 4 9 9 3 11 8 9 10 9 13 12
5 2 7 14 9 5 5 6 6 6 7 7 8 8 8 8 8 8 8 8 9 10 9 9 8 8 6 3 15 10 13 9 22 17 4 4 6 16 7 5 9 -3 5 5 13 7 4
3 12 13 4 6 6 7 8 7 7 7 9 9 9 8 7 8 8 10 10 11 10 10 9 8 8 7 10 8 8 6 7 -0 -7 5 13 9 11 11 8 27 12 4 5 5 15 8
16 6 5 6 7 7 7 7 7 7 6 4 4 5 6 7 8 8 9 10 10 11 10 9 10 9 5 10 8 9 15 11 8 10 14 8 9 6 6 -2 -10 -5 10 6 16 6 9
6 7 7 7 7 7 6 4 5 4 3 4 6 8 10 9 9 9 9 9 8 9 9 9 9 10 12 24 32 32 22 24 21 13 11 14 7 6 11 9 -5 7 3 12 18 9 8
6 6 7 7 7 4 4 5 3 4 6 8 9 9 8 8 9 8 8 8 8 9 9 11 18 40 37 36 16 -8 0 11 17 23 18 10 6 6 16 1 -11 2 9 21 -4 -2 19
6 6 6 5 4 4 4 5 7 8 8 7 6 7 7 8 9 8 9 8 11 6 17 6 -13 1 10 10 11 8 23 20 19 13 7 9 5 3 2 5 3 -13 0 -1 4 19 19
6 5 4 5 4 5 6 6 6 6 7 9 12 10 8 9 11 11 11 13 13 3 16 3 2 5 15 29 14 11 16 16 14 0 15 8 4 3 -7 11 25 21 -4 -5 7 7 -8
4 4 4 5 6 5 5 7 9 10 7 6 6 9 9 9 11 11 14 12 14 15 9 4 21 13 18 15 19 32 9 7 10 19 8 -2 6 20 -7 12 3 -7 -6 15 -1 2 32
4 4 6 6 6 9 10 8 6 6 7 9 11 12 11 13 16 10 13 14 16 20 32 10 49 52 26 24 34 52 47 12 12 19 13 16 9 -37 25 12 -3 18 21 7 10 8 1
5 6 6 9 9 7 7 7 7 9 9 9 10 15 17 25 17 19 16 16 24 24 12 23 18 11 11 4 -5 7 56 14 1 -8 8 5 14 23 -9 16 5 -7 11 15 10 9 5
7 8 8 7 6 6 6 6 10 9 12 17 17 20 26 24 16 18 19 32 39 10 9 1 9 11 13 10 23 1 2 54 3 -0 1 18 -20 12 13 18 -17 -1 -8 3 19 16 30
7 7 6 6 7 7 8 11 13 17 20 21 26 18 10 8 18 11 14 25 20 -11 -4 9 -7 -12 -22 2 20 18 5 18 1 47 -0 21 16 1 7 5 23 29 18 19 26 13 -4
6 5 7 7 8 9 13 16 16 16 19 20 11 8 12 5 20 20 11 30 7 -8 -8 -11 -4 10 20 19 23 16 19 10 33 -11 15 3 35 31 -4 7 -11 -1 7 -31 5 6 16
6 8 7 8 11 14 13 15 21 16 21 21 5 7 12 23 17 1 11 32 -7 -11 -34 6 51 28 33 -7 -5 26 34 10 6 36 -43 23 20 -5 25 52 10 23 22 -0 -42 12 10
7 8 11 11 13 14 13 21 15 8 11 7 7 11 18 11 4 21 6 8 20 24 -5 28 15 -13 -23 -19 29 2 14 71 37 21 10 28 -1 11 27 35 32 -13 7 22 8 10 6
9 10 10 11 15 15 21 18 15 8 7 7 8 14 7 16 12 -3 18 15 8 -4 13 11 11 11 20 11 2 30 9 8 35 79 39 17 -6 24 19 5 16 35 -4 13 26 -62 12
9 9 12 13 12 21 19 19 14 8 22 12 7 7 14 6 23 17 11 12 5 4 11 18 14 -1 10 14 22 30 -26 12 -5 -5 -1 29 46 28 -31 2 33 6 27 -26 -29 36 30
9 12 14 12 20 16 10 4 10 14 11 7 9 17 9 4 25 3 2 -7 12 22 2 11 10 -6 18 8 24 -13 -1 16 4 -3 -4 -13 -10 28 37 60 -33 10 23 29 -8 -54 22
12 11 11 17 18 16 9 8 9 10 7 11 13 7 6 27 9 1 9 14 18 14 6 11 -5 8 10 13 13 -24 14 -17 14 29 9 7 5 -9 -8 -9 5 57 -14 8 4 -7 -9
10 13 14 18 17 9 8 10 12 12 11 9 10 8 6 -12 -17 20 5 7 7 14 12 1 9 -4 15 1 5 12 2 6 -0 25 13 9 -1 12 14 10 5 27 37 24 11 -2 -22
10 13 13 8 4 11 13 10 9 12 12 13 11 8 30 21 -7 1 19 7 15 0 1 11 13 3 8 7 8 15 6 3 8 9 -12 19 -12 21 19 1 -14 20 8 0 29 5 25
11 13 14 11 10 8 10 10 8 8 11 10 10 10 16 9 -9 17 -5 9 7 7 13 11 5 8 9 5 14 4 2 5 4 6 4 21 9 1 9 16 21 74 69 1 -7 17 19
12 13 9 9 10 11 11 11 12 14 11 8 10 10 5 7 16 29 9 12 13 11 5 8 12 7 14 9 7 6 6 9 17 22 16 11 4 15 -2 29 19 7 -2 47 34 -10 4
12 10 9 7 9 10 10 12 12 11 12 14 10 9 6 19 29 -3 26 -1 8 7 16 2 17 13 13 -3 18 28 11 49 4 21 51 20 17 -7 -7 1 -18 8 5 18 33 19 20
11 11 10 10 9 8 6 7 11 17 11 10 12 15 6 4 -1 -5 12 12 5 12 17 12 8 6 10 4 24 7 4 -8 15 19 49 36 21 -15 25 5 9 2 -5 33 45 10 20
12 13 10 12 13 11 7 6 6 22 18 9 10 12 13 10 11 8 5 5 15 12 0 6 7 18 16 28 17 18 21 7 23 8 29 24 33 -4 3 -9 21 -34 -15 11 -2 -3 12
14 13 11 13 13 15 10 9 3 17 15 12 7 8 13 16 7 11 15 4 6 8 15 22 6 19 22 17 7 13 16 13 -13 -6 25 9 2 32 11 25 25 29 7 3 -13 12 -4
11 13 13 15 15 15 9 10 8 15 11 16 10 8 11 5 -13 33 13 36 30 1 5 14 11 11 -21 -8 -14 -11 -19 36 14 6 6 16 -17 16 -11 15 -16 11 25 16 8 16 0
Height
3151 3149 3146 3143 3140 3137 3134 3131 3127 3124 3122 3118 3115 3112 3108 3106 3103 3100 3097 3094 3092 3088 3084 3081 3079 3075 3071 3067 3077 3075 3070 3071 3070 3068 3068 3067 3066 3066 3063 3063 3064 3060 3063 3063 3066 3066 3066
3148 3146 3143 3140 3137 3134 3131 3127 3123 3120 3116 3113 3110 3106 3103 3099 3095 3092 3090 3086 3081 3078 3074 3072 3069 3065 3059 3047 3070 3066 3062 3061 3063 3063 3061 3060 3061 3062 3056 3057 3058 3056 3058 3058 3059 3060 3061
3146 3142 3140 3137 3134 3130 3127 3123 3119 3115 3112 3107 3103 3099 3095 3090 3086 3083 3080 3078 3074 3070 3066 3063 3060 3054 3043 3039 3059 3055 3053 3053 3052 3056 3056 3055 3054 3054 3052 3053 3053 3053 3051 3052 3052 3055 3054
3142 3140 3137 3133 3130 3126 3122 3118 3115 3111 3107 3102 3097 3093 3089 3083 3079 3073 3070 3068 3064 3061 3057 3054 3050 3044 3027 3033 3045 3044 3043 3041 3043 3045 3046 3049 3048 3048 3047 3049 3049 3048 3048 3045 3043 3049 3050
3140 3136 3132 3129 3125 3121 3118 3113 3110 3105 3099 3093 3088 3084 3080 3075 3070 3064 3061 3059 3054 3051 3047 3043 3040 3035 3022 3022 3026 3029 3030 3029 3033 3033 3038 3041 3041 3041 3042 3043 3044 3040 3036 3036 3038 3043 3046
3135 3132 3129 3125 3122 3117 3113 3108 3104 3098 3093 3088 3081 3074 3070 3068 3063 3056 3051 3049 3045 3039 3035 3034 3028 3026 3019 3018 3018 3022 3022 3022 3021 3023 3029 3031 3031 3030 3031 3033 3027 3030 3031 3030 3030 3036 3039
3130 3127 3124 3120 3116 3112 3107 3102 3096 3090 3086 3081 3074 3067 3060 3057 3055 3047 3042 3036 3036 3030 3024 3022 3018 3011 3011 3012 3010 3010 3013 3013 3012 3014 3013 3020 3020 3010 3019 3022 3025 3029 3028 3025 3026 3032 3034
3126 3123 3119 3115 3110 3105 3100 3093 3088 3082 3077 3072 3069 3061 3051 3046 3047 3040 3034 3029 3024 3016 3004 3007 3007 2999 3000 3001 2994 2995 3001 3003 3001 2999 3007 3011 2998 3010 3016 3019 3021 3023 3022 3021 3023 3026 3029
3122 3118 3114 3109 3103 3098 3092 3086 3080 3074 3067 3061 3056 3054 3043 3035 3034 3032 3026 3022 3017 3013 3001 2989 2987 2987 2990 2984 2981 2981 2988 2992 2994 2996 2995 2996 2996 3004 3009 3011 3013 3015 3016 3018 3019 3019 3020
3117 3112 3108 3102 3097 3091 3085 3079 3072 3065 3057 3050 3044 3041 3034 3028 3025 3020 3018 3014 3010 3004 3000 2981 2981 2976 2975 2975 2973 2973 2975 2983 2985 2986 2995 2992 2996 2998 3002 3000 3009 3008 3013 3016 3015 3017 3014
3111 3106 3101 3096 3090 3083 3077 3069 3063 3056 3049 3041 3033 3028 3023 3017 3012 3009 3007 3005 3002 3002 3001 2982 2975 2973 2971 2973 2972 2972 2969 2973 2974 2979 2987 2979 2984 2991 2991 2993 3004 3002 3009 3010 3011 3010 3011
3105 3100 3094 3089 3082 3075 3068 3061 3056 3048 3041 3033 3026 3020 3016 3012 3009 3005 3001 2999 2998 3000 2984 2976 2973 2971 2970 2969 2969 2969 2970 2968 2971 2976 2977 2978 2981 2985 2984 2993 2997 3001 3005 3005 3005 3004 2997
3099 3093 3087 3080 3074 3068 3060 3053 3046 3039 3032 3025 3019 3015 3013 3007 3004 2999 2996 2997 2999 2987 2979 2974 2968 2965 2964 2964 2964 2964 2965 2964 2965 2970 2967 2971 2971 2974 2981 2987 2991 2995 3000 3001 2999 2995 2979
3092 3085 3079 3073 3067 3060 3053 3045 3037 3030 3023 3017 3013 3011 3010 3002 3000 2996 2995 2994 2992 2981 2976 2970 2967 2962 2963 2963 2959 2959 2958 2958 2959 2961 2961 2964 2965 2966 2969 2972 2980 2985 2991 2989 2990 2984 2976
3085 3079 3073 3067 3060 3052 3044 3036 3029 3022 3018 3013 3007 3007 3006 3001 2997 2996 2993 2992 2987 2981 2977 2972 2967 2964 2960 2960 2956 2953 2950 2951 2953 2955 2957 2956 2956 2958 2960 2964 2973 2977 2978 2982 2983 2978 2975
3080 3074 3068 3060 3052 3044 3037 3030 3025 3019 3014 3009 3003 3001 3000 2997 2995 2992 2991 2988 2985 2982 2978 2975 2974 2969 2964 2959 2956 2952 2947 2943 2945 2949 2951 2950 2951 2953 2956 2959 2963 2965 2973 2981 2980 2976 2969
3075 3068 3061 3053 3045 3038 3032 3026 3020 3015 3010 3005 2999 2996 2997 2993 2992 2990 2987 2985 2982 2981 2978 2975 2971 2967 2964 2960 2960 2956 2951 2944 2942 2937 2939 2942 2944 2948 2950 2950 2953 2958 2961 2967 2969 2968 2961
3068 3061 3054 3047 3040 3033 3027 3022 3017 3012 3007 3000 2998 2994 2992 2990 2989 2985 2984 2983 2981 2978 2976 2973 2969 2966 2963 2960 2956 2955 2952 2949 2944 2940 2935 2937 2935 2938 2940 2946 2948 2949 2950 2957 2958 2956 2956
3062 3055 3048 3041 3034 3028 3023 3019 3014 3009 3004 2999 2996 2993 2990 2986 2984 2982 2981 2980 2978 2975 2974 2971 2968 2966 2964 2961 2958 2953 2951 2950 2945 2941 2938 2935 2932 2931 2936 2942 2943 2941 2944 2949 2953 2950 2945
3055 3049 3043 3037 3030 3024 3020 3015 3010 3005 3000 2996 2994 2990 2988 2983 2981 2980 2978 2976 2973 2972 2970 2969 2966 2965 2962 2959 2958 2951 2947 2947 2947 2943 2941 2940 2934 2934 2934 2935 2936 2936 2937 2941 2945 2944 2942
3050 3044 3038 3032 3026 3021 3016 3010 3008 3003 2997 2992 2990 2987 2984 2980 2978 2976 2975 2972 2970 2968 2966 2965 2963 2962 2961 2957 2955 2951 2946 2936 2940 2940 2939 2937 2937 2932 2930 2930 2928 2928 2931 2932 2933 2932 2938
3046 3040 3033 3028 3022 3017 3013 3007 3002 3000 2993 2990 2987 2984 2979 2976 2973 2972 2970 2969 2967 2964 2964 2961 2959 2957 2957 2955 2953 2948 2945 2943 2936 2935 2938 2939 2932 2930 2924 2926 2924 2921 2922 2925 2927 2930 2931
3042 3035 3030 3024 3019 3014 3009 3005 3001 2996 2990 2985 2983 2981 2977 2974 2970 2968 2967 2964 2962 2961 2958 2957 2955 2953 2951 2950 2947 2944 2941 2939 2935 2932 2931 2931 2932 2933 2927 2926 2921 2917 2915 2918 2921 2923 2924
3037 3031 3026 3021 3016 3011 3005 3001 2996 2992 2987 2981 2979 2976 2972 2967 2965 2963 2962 2960 2958 2957 2953 2951 2950 2948 2948 2943 2941 2938 2935 2931 2929 2923 2925 2927 2930 2933 2926 2924 2923 2914 2911 2910 2913 2915 2920
3033 3026 3021 3016 3011 3005 3000 2996 2991 2986 2983 2977 2975 2971 2967 2959 2956 2957 2956 2955 2953 2951 2949 2946 2946 2944 2941 2939 2935 2929 2926 2922 2917 2914 2912 2916 2924 2928 2927 2923 2916 2909 2911 2909 2907 2908 2914
3030 3023 3017 3012 3006 3000 2996 2991 2985 2979 2976 2972 2969 2966 2962 2958 2955 2953 2951 2950 2947 2944 2942 2942 2941 2940 2938 2935 2933 2928 2925 2922 2915 2909 2904 2908 2917 2925 2923 2921 2913 2908 2908 2907 2907 2907 2909
3025 3018 3012 3006 3000 2995 2990 2985 2980 2973 2969 2966 2963 2960 2956 2952 2950 2948 2946 2945 2943 2941 2937 2936 2934 2933 2933 2930 2929 2926 2922 2920 2917 2912 2908 2909 2914 2915 2919 2918 2911 2907 2907 2908 2909 2912 2907
3019 3012 3005 2999 2993 2988 2983 2979 2973 2968 2964 2960 2956 2954 2950 2946 2943 2943 2942 2939 2937 2936 2933 2931 2930 2929 2928 2927 2926 2924 2919 2918 2917 2914 2909 2909 2911 2913 2918 2916 2914 2903 2907 2910 2909 2908 2905
3013 3007 2999 2993 2988 2982 2976 2971 2966 2961 2958 2954 2948 2947 2944 2941 2939 2936 2935 2934 2931 2930 2928 2925 2924 2924 2924 2923 2923 2922 2920 2917 2914 2910 2908 2908 2908 2907 2908 2904 2903 2901 2904 2907 2905 2905 2904